[[{"header":{"parameterUnit":"m.s-1","parameterCategory":1,"la1":30.2991,"la2":30.254,"lo1":-89.0895,"lo2":-89.0444,"dy":0.0017,"dx":0.0017,"nx":28,"ny":28,"refTime":"2024-06-20T09:00:00:Z","depth":0,"parameterNumber":2,"parameterNumberName":"U-component_of_WINDS"},"data":[0,0,0,0,0,0,0,0,0,0,0,0,0,0,0,0,0,0,0,0,0,0,0,0,0,0,0,0,0,0,0,0,0,0,0,0,0,0,0,0,0,0,0,0,0,0,0,0,0,0,0,0,0,0,0,0,0,0,-3.0775,-3.0774,0,-3.0672,-3.067,-3.0669,-3.0478,-3.0474,-3.047,-3.0467,-3.0367,-3.0367,-3.0368,0,0,0,0,0,0,0,0,0,0,0,0,0,-3.0809,-3.081,-3.0775,-3.0773,-3.0772,-3.0672,-3.067,-3.0669,-3.0478,-3.0474,-3.0469,-3.0465,-3.0366,-3.0367,-3.0368,0,0,0,0,0,0,0,0,0,0,0,0,0,-3.076,-3.081,-3.0775,-3.0665,-3.0654,-3.0672,-3.067,-3.0669,-3.0479,-3.0474,-3.0468,-3.0463,-3.0366,-3.0367,-3.0368,-3.0488,0,0,-3.0372,-3.0373,0,0,0,0,0,0,0,0,-3.0763,-3.0758,-3.0682,-3.0672,-3.066,-3.0581,-3.0646,-3.0608,-3.0481,-3.0546,-3.0467,-3.046,-3.0443,-3.0438,-3.0431,-3.0483,-3.0479,-3.0372,-3.0373,-3.0374,-3.0374,0,0,0,0,0,0,0,-3.0766,-3.0762,-3.0734,-3.0681,-3.0668,-3.0621,-3.0608,-3.0638,-3.0527,-3.054,-3.0525,-3.0516,-3.0436,-3.043,-3.0427,-3.0477,-3.0372,-3.0373,-3.0374,-3.0375,-3.062,-3.0626,0,0,0,0,0,0,-3.0785,-3.0766,-3.0737,-3.0731,-3.0698,-3.0625,-3.061,-3.0613,-3.0526,-3.0508,-3.052,-3.0507,-3.0431,-3.0426,-3.0423,-3.0556,-3.0374,-3.0375,-3.0375,-3.0615,-3.0622,-3.0628,0,0,0,0,0,0,-3.0787,-3.0785,-3.0741,-3.0744,-3.0735,-3.0631,-3.0635,-3.0614,-3.0607,-3.0512,-3.0491,-3.0535,-3.0426,-3.0421,-3.0472,-3.055,-3.0375,-3.0376,-3.0608,-3.0617,-3.0625,-3.0825,0,0,0,0,0,0,-3.0789,-3.0786,-3.083,-3.0747,-3.0736,-3.0793,-3.0639,-3.0616,-3.0609,-3.0591,-3.0519,-3.0502,-3.0421,-3.0471,-3.0473,-3.0549,-3.0377,-3.06,-3.0612,-3.0622,-3.0811,-3.0839,-3.0864,0,0,0,0,0,-3.0791,-3.0892,-3.0833,-3.0831,-3.0788,-3.0797,-3.0791,-3.0694,-3.0616,-3.066,-3.0598,-3.0505,-3.0541,-3.0478,-3.0479,-3.0556,-3.0595,-3.0609,-3.0621,-3.0799,-3.0834,-3.0863,0,0,0,0,0,0,-3.099,-3.0879,-3.0813,-3.089,-3.0854,-3.0765,-3.0817,-3.0734,-3.0722,-3.0705,-3.0587,-3.0572,-3.0639,-3.0602,-3.0534,-3.0665,-3.0553,-3.0567,-3.0688,-3.072,-3.0746,-3.0755,-3.0378,0,0,0,0,0,-3.1042,-3.1057,-3.096,-3.1038,-3.1023,-3.0924,-3.0924,-3.0852,-3.0811,-3.0795,-3.0737,-3.0703,-3.0705,-3.071,-3.0708,-3.0803,-3.0785,-3.0856,-3.0883,-3.0905,-3.0919,-3.0966,-3.0997,-3.0671,-3.0671,-3.067,0,0,-3.1152,-3.1093,-3.1111,-3.1076,-3.104,-3.106,-3.0912,-3.094,-3.0953,-3.08,-3.0844,-3.0801,-3.0753,-3.0827,-3.0857,-3.0798,-3.1004,-3.0921,-3.094,-3.0942,-3.0983,-3.1014,-3.1042,-3.068,-3.0678,-3.0677,0,0,-3.1362,-3.1319,-3.1378,-3.1344,-3.129,-3.1222,-3.1237,-3.1159,-3.1123,-3.1165,-3.105,-3.1065,-3.1073,-3.1044,-3.103,-3.1226,-3.114,-3.1228,-3.1368,-3.1415,-3.1441,-3.1463,-3.1534,-3.1561,-3.1242,-3.1243,-3.1243,0,-3.1506,-3.1529,-3.142,-3.1453,-3.1442,-3.1301,-3.1361,-3.1333,-3.1283,-3.1278,-3.1212,-3.1218,-3.1176,-3.1241,-3.1289,-3.1282,-3.1296,-3.1237,-3.1446,-3.1467,-3.1486,-3.1552,-3.1579,-3.1254,-3.1253,-3.1251,-3.125,0,-3.1709,-3.1727,-3.1781,-3.1733,-3.1727,-3.1775,-3.1673,-3.168,-3.1608,-3.1548,-3.1592,-3.1537,-3.152,-3.1529,-3.146,-3.1585,-3.155,-3.1467,-3.1352,-3.153,-3.159,-3.1615,-3.127,-3.1266,-3.1263,-3.126,0,0,-3.2045,-3.1933,-3.1955,-3.1931,-3.1859,-3.1872,-3.1912,-3.1893,-3.1902,-3.1871,-3.1903,-3.1911,-3.1832,-3.1817,-3.1743,-3.1784,-3.1944,-3.1695,-3.1692,-3.1745,-3.2078,-3.2143,-3.2174,-3.1884,-3.1889,-3.1892,-3.2082,0,-3.2241,-3.2302,-3.2204,-3.2288,-3.2303,-3.2168,-3.2202,-3.2163,-3.2107,-3.2113,-3.2051,-3.2059,-3.1955,-3.1944,-3.1979,-3.1917,-3.2009,-3.1901,-3.1915,-3.1917,-3.1933,-3.2205,-3.2274,-3.2456,-3.2105,-3.2109,-3.2111,0,-3.2479,-3.2457,-3.2543,-3.2463,-3.2466,-3.25,-3.2474,-3.248,-3.2432,-3.2388,-3.237,-3.2281,-3.2315,-3.2202,-3.2248,-3.2177,-3.2176,-3.2146,-3.2151,-3.215,-3.2027,-3.2214,-3.2511,-3.254,-3.2147,-3.2144,-3.2142,0,-3.2717,-3.2709,-3.2758,-3.2742,-3.2651,-3.2677,-3.2641,-3.2587,-3.2582,-3.2559,-3.2555,-3.2538,-3.2529,-3.2518,-3.2427,-3.2353,-3.2485,-3.2364,-3.2451,-3.2454,-3.2488,-3.2487,-3.2791,-3.2484,-3.2483,-3.2483,-3.2482,0,-3.2948,-3.3006,-3.2864,-3.2895,-3.2956,-3.2841,-3.2905,-3.2855,-3.2808,-3.2827,-3.2709,-3.273,-3.2607,-3.2615,-3.2543,-3.2593,-3.259,-3.2557,-3.2538,-3.2569,-3.2573,-3.2568,-3.2554,-3.249,-3.2488,-3.2487,-3.2486,0,-3.3226,-3.3133,-3.3178,-3.3087,-3.3065,-3.3115,-3.3037,-3.3062,-3.2997,-3.3023,-3.3023,-3.2922,-3.2925,-3.2831,-3.2816,-3.2768,-3.285,-3.2807,-3.2866,-3.2853,-3.2946,-3.294,-3.326,-3.3296,-3.2965,-3.2968,-3.2971,0,-3.3381,-3.3422,-3.3334,-3.3337,-3.3306,-3.3314,-3.3306,-3.3195,-3.3192,-3.3139,-3.3172,-3.3164,-3.3152,-3.3164,-3.309,-3.3077,-3.3034,-3.3147,-3.3032,-3.3062,-3.3038,-3.3038,-3.3042,-3.3173,-3.3177,-3.3181,-3.3183,0,-3.3665,-3.3616,-3.361,-3.3587,-3.3581,-3.3559,-3.3529,-3.3538,-3.3416,-3.342,-3.342,-3.3411,-3.3393,-3.3388,-3.3361,-3.3324,-3.3235,-3.3219,-3.3239,-3.3273,-3.3306,-3.3291,-3.2935,-3.3213,-3.321,-3.3208,-3.3207,-3.3205,-3.3887,-3.3917,-3.3859,-3.3856,-3.382,-3.3794,-3.3813,-3.3749,-3.3746,-3.3723,-3.3656,-3.3668,-3.3617,-3.3571,-3.3542,-3.355,-3.3494,-3.3523,-3.353,-3.354,-3.3558,-3.3302,-3.3545,-3.3544,-3.3543,-3.3542,-3.3541,0,-3.4167,-3.4122,-3.412,-3.408,-3.4077,-3.3988,-3.395,-3.3954,-3.3965,-3.3924,-3.3914,-3.3914,-3.3907,-3.3832,-3.3816,-3.3837,-3.3796,-3.3837,-3.3836,-3.3829,-3.3608,-3.3593,-3.3871,-3.3871,-3.3871,-3.3871,-3.3871,-3.3871,-3.4312,-3.4358,-3.4302,-3.4329,-3.4283,-3.4292,-3.4278,-3.4253,-3.4219,-3.4224,-3.4217,-3.4167,-3.4112,-3.4091,-3.4081,-3.4059,-3.406,-3.4116,-3.4081,-3.3876,-3.3845,-3.3814,-3.38,-3.4117,-3.4117,-3.4301,-3.4302,-3.4304]},{"header":{"parameterUnit":"m.s-1","parameterCategory":1,"la1":30.2991,"la2":30.254,"lo1":-89.0895,"lo2":-89.0444,"dy":0.0017,"dx":0.0017,"nx":28,"ny":28,"refTime":"2024-06-20T09:00:00:Z","depth":0,"parameterNumber":3,"parameterNumberName":"V-component_of_WINDS"},"data":[0,0,0,0,0,0,0,0,0,0,0,0,0,0,0,0,0,0,0,0,0,0,0,0,0,0,0,0,0,0,0,0,0,0,0,0,0,0,0,0,0,0,0,0,0,0,0,0,0,0,0,0,0,0,0,0,0,0,-2.3865,-2.3866,0,-2.3932,-2.3933,-2.3934,-2.3945,-2.3944,-2.3943,-2.3943,-2.401,-2.4012,-2.4014,0,0,0,0,0,0,0,0,0,0,0,0,0,-2.3745,-2.3747,-2.3865,-2.3866,-2.3867,-2.3932,-2.3933,-2.3934,-2.3945,-2.3944,-2.3943,-2.3943,-2.4009,-2.4012,-2.4014,0,0,0,0,0,0,0,0,0,0,0,0,0,-2.3803,-2.3747,-2.3865,-2.388,-2.3882,-2.3932,-2.3933,-2.3934,-2.3945,-2.3944,-2.3943,-2.3942,-2.4008,-2.4011,-2.4015,-2.4054,0,0,-2.4025,-2.4027,0,0,0,0,0,0,0,0,-2.3799,-2.3807,-2.3877,-2.3879,-2.3882,-2.3929,-2.3915,-2.3974,-2.3945,-2.3921,-2.3943,-2.3942,-2.3983,-2.3989,-2.4003,-2.4057,-2.406,-2.4026,-2.4028,-2.4029,-2.403,0,0,0,0,0,0,0,-2.3795,-2.3804,-2.3892,-2.3878,-2.3881,-2.3883,-2.389,-2.3926,-2.3956,-2.3923,-2.3924,-2.3932,-2.3984,-2.4,-2.4005,-2.4061,-2.4026,-2.4029,-2.4031,-2.4032,-2.4148,-2.4149,0,0,0,0,0,0,-2.3789,-2.3801,-2.389,-2.3894,-2.3838,-2.3886,-2.3894,-2.3915,-2.3956,-2.3961,-2.3933,-2.3932,-2.3994,-2.4001,-2.4007,-2.4054,-2.4029,-2.4033,-2.4035,-2.4147,-2.4148,-2.4149,0,0,0,0,0,0,-2.3786,-2.3797,-2.3887,-2.3848,-2.3859,-2.3889,-2.3912,-2.3917,-2.3932,-2.3963,-2.3968,-2.3943,-2.3994,-2.4002,-2.4042,-2.4057,-2.4034,-2.4037,-2.4145,-2.4147,-2.4148,-2.4149,0,0,0,0,0,0,-2.3783,-2.3796,-2.3811,-2.3848,-2.3861,-2.3921,-2.3913,-2.3918,-2.3938,-2.3938,-2.3974,-2.3979,-2.3994,-2.4037,-2.4045,-2.4061,-2.404,-2.4144,-2.4146,-2.4148,-2.4148,-2.415,-2.4153,0,0,0,0,0,-2.3778,-2.3809,-2.3812,-2.3823,-2.3882,-2.3922,-2.3929,-2.3946,-2.3939,-2.3955,-2.3975,-2.3978,-2.4054,-2.404,-2.405,-2.4067,-2.4143,-2.4146,-2.4148,-2.4147,-2.415,-2.4152,0,0,0,0,0,0,-2.3773,-2.3814,-2.3818,-2.3861,-2.3888,-2.3923,-2.3943,-2.3949,-2.3978,-2.3977,-2.3996,-2.4004,-2.4042,-2.4059,-2.4043,-2.4107,-2.4098,-2.4102,-2.4094,-2.4097,-2.4099,-2.4094,-2.4043,0,0,0,0,0,-2.3777,-2.3807,-2.3841,-2.3875,-2.3889,-2.3914,-2.3932,-2.3943,-2.3971,-2.3982,-2.4005,-2.4031,-2.4061,-2.408,-2.4109,-2.4151,-2.4158,-2.4167,-2.417,-2.4171,-2.4174,-2.4196,-2.42,-2.4156,-2.4156,-2.4156,0,0,-2.3785,-2.3811,-2.3829,-2.3875,-2.3897,-2.3926,-2.3923,-2.3955,-2.3977,-2.3987,-2.4025,-2.4042,-2.4073,-2.4114,-2.4132,-2.4129,-2.4189,-2.4174,-2.4175,-2.4178,-2.4199,-2.4203,-2.4207,-2.4158,-2.4157,-2.4157,0,0,-2.3814,-2.3838,-2.3869,-2.3891,-2.3924,-2.394,-2.3948,-2.3983,-2.3995,-2.4034,-2.4041,-2.4067,-2.4119,-2.414,-2.4157,-2.4195,-2.4198,-2.4204,-2.4215,-2.4236,-2.424,-2.4243,-2.4255,-2.4259,-2.4207,-2.4207,-2.4207,0,-2.382,-2.3865,-2.3884,-2.3915,-2.3934,-2.3945,-2.3976,-2.3996,-2.4037,-2.405,-2.4046,-2.411,-2.4132,-2.4176,-2.4185,-2.42,-2.4208,-2.4199,-2.4238,-2.4241,-2.4245,-2.4256,-2.4261,-2.4207,-2.4207,-2.4207,-2.4207,0,-2.387,-2.3901,-2.3922,-2.3961,-2.3984,-2.4014,-2.4036,-2.4057,-2.4065,-2.4082,-2.412,-2.4147,-2.4181,-2.4193,-2.4202,-2.4238,-2.4235,-2.4234,-2.4226,-2.4249,-2.426,-2.4265,-2.4208,-2.4207,-2.4207,-2.4207,0,0,-2.3897,-2.3946,-2.3953,-2.3971,-2.4008,-2.4032,-2.4063,-2.4097,-2.4113,-2.4141,-2.4167,-2.421,-2.4209,-2.4229,-2.424,-2.4259,-2.4285,-2.4256,-2.4257,-2.4259,-2.4325,-2.4325,-2.433,-2.4288,-2.4289,-2.429,-2.4322,0,-2.393,-2.3986,-2.4003,-2.4049,-2.4078,-2.4088,-2.4115,-2.414,-2.4157,-2.4182,-2.42,-2.423,-2.4227,-2.4239,-2.4258,-2.4277,-2.4298,-2.4276,-2.4311,-2.4312,-2.4301,-2.4336,-2.4335,-2.4365,-2.4327,-2.4328,-2.4328,0,-2.3976,-2.4005,-2.4054,-2.4087,-2.4099,-2.4123,-2.4155,-2.418,-2.4208,-2.4219,-2.4241,-2.425,-2.4282,-2.4273,-2.4316,-2.43,-2.4316,-2.4327,-2.4329,-2.4332,-2.432,-2.4338,-2.4375,-2.4378,-2.4335,-2.4335,-2.4334,0,-2.3989,-2.404,-2.4076,-2.4091,-2.413,-2.4146,-2.4164,-2.4191,-2.421,-2.4238,-2.425,-2.4281,-2.4298,-2.4321,-2.4339,-2.4331,-2.438,-2.4372,-2.4388,-2.4388,-2.4397,-2.4396,-2.4435,-2.4409,-2.4409,-2.4409,-2.4409,0,-2.4023,-2.4053,-2.4082,-2.4104,-2.4137,-2.4156,-2.4187,-2.4205,-2.423,-2.4254,-2.4266,-2.4289,-2.4311,-2.4336,-2.435,-2.4383,-2.4391,-2.4399,-2.4402,-2.4398,-2.4396,-2.4407,-2.4405,-2.4411,-2.441,-2.441,-2.441,0,-2.4043,-2.4064,-2.4104,-2.4138,-2.4147,-2.417,-2.4199,-2.422,-2.4236,-2.4267,-2.4276,-2.4302,-2.4332,-2.4352,-2.4392,-2.4401,-2.4436,-2.444,-2.4427,-2.4428,-2.4442,-2.444,-2.4489,-2.4496,-2.4466,-2.4466,-2.4467,0,-2.4063,-2.4086,-2.4122,-2.414,-2.4157,-2.4185,-2.4204,-2.4224,-2.4243,-2.4277,-2.4294,-2.4326,-2.4352,-2.44,-2.4422,-2.4452,-2.4455,-2.447,-2.4459,-2.4453,-2.4453,-2.4451,-2.4453,-2.4471,-2.4471,-2.4471,-2.4472,0,-2.4095,-2.4104,-2.4132,-2.4163,-2.4186,-2.4211,-2.4236,-2.425,-2.4274,-2.4295,-2.4327,-2.4347,-2.4387,-2.4417,-2.4449,-2.4466,-2.4472,-2.4475,-2.448,-2.4475,-2.4466,-2.4469,-2.443,-2.4473,-2.4473,-2.4473,-2.4473,-2.4473,-2.4115,-2.4135,-2.4164,-2.4194,-2.4215,-2.4238,-2.4259,-2.4279,-2.4305,-2.4339,-2.4349,-2.4382,-2.4409,-2.4452,-2.447,-2.4495,-2.4493,-2.4501,-2.4503,-2.4504,-2.4503,-2.4463,-2.4501,-2.4501,-2.4501,-2.4501,-2.4501,0,-2.4146,-2.4165,-2.4193,-2.4228,-2.4251,-2.4256,-2.4284,-2.4303,-2.4332,-2.4357,-2.4382,-2.4418,-2.4448,-2.4472,-2.4502,-2.4518,-2.4521,-2.4525,-2.4523,-2.4527,-2.4504,-2.4496,-2.4521,-2.4521,-2.4521,-2.4521,-2.4521,-2.4521,-2.4166,-2.42,-2.4212,-2.4256,-2.4275,-2.4307,-2.4322,-2.4344,-2.4364,-2.4403,-2.4428,-2.4444,-2.4468,-2.45,-2.4527,-2.4534,-2.4544,-2.4547,-2.4553,-2.4531,-2.4529,-2.4526,-2.4519,-2.4549,-2.4549,-2.4574,-2.4574,-2.4575]}]]